Location: Heilbronn
(49.1548°N, 9.2780°E)
Time: 22:32:08
(UTC+01:00)

ISS - Visible Passes

Search period start: 25 February 2018 00:00
Search period end: 07 March 2018 00:00
Orbit: 403 x 406 km, 51.6° (Epoch: 26 February)

Date Brightness Start Highest point End Pass type
(mag) Time Alt. Az. Time Alt. Az. Time Alt. Az.
26 Feb -0.9 06:24:56 10° S 06:26:51 15° SE 06:28:47 10° ESE visible
28 Feb -1.9 06:15:43 10° SSW 06:18:34 28° SE 06:21:25 10° E visible
01 Mar -1.3 05:24:14 10° S 05:26:30 17° SE 05:28:46 10° E visible
02 Mar -0.8 04:34:18 10° SE 04:34:29 10° SE 04:35:09 10° ESE visible
02 Mar -3.1 06:07:09 10° SW 06:10:20 51° SSE 06:13:32 10° ENE visible
03 Mar -2.4 05:17:00 25° S 05:18:09 32° SSE 05:21:08 10° E visible
04 Mar -1.3 04:26:55 18° ESE 04:26:55 18° ESE 04:28:33 10° E visible
04 Mar -3.8 05:59:34 15° WSW 06:02:10 87° SSE 06:05:27 10° ENE visible
05 Mar -3.6 05:09:24 51° SSW 05:09:53 60° SSE 05:13:08 10° ENE visible
06 Mar -1.5 04:19:09 23° E 04:19:09 23° E 04:20:43 10° E visible
06 Mar -3.7 05:51:47 19° W 05:54:02 65° NNW 05:57:18 10° ENE visible
